Regional Weather Roundup
Issued by NWS

Home | Current Version | Previous Version | Text Only | Print | Product List | Glossary Off
Versions: 1 2 3 4 5 6 7 8 9 10 11 12 13 14 15 16 17 18 19 20 21 22 23 24 25 26 27 28 29 30 31 32 33 34 35 36 37 38 39 40 41 42 43 44 45 46 47 48 49 50

000
ASUS43 KLSX 301610
RWRMO

WEATHER SUMMARY FOR MISSOURI
NATIONAL WEATHER SERVICE SPRINGFIELD MO
1100 AM CDT SUN AUG 30 2015

NOTE: "FAIR" INDICATES FEW OR NO CLOUDS BELOW 12,000 FEET WITH NO
       SIGNIFICANT WEATHER AND/OR OBSTRUCTIONS TO VISIBILITY.
       CURRENT SKY AND/OR WEATHER CONDITIONS ARE NOT AVAILABLE FOR
       CHILLICOTHE AND FARMINGTON.

MOZ001>031-035>038-043-044-053-054-301700-
...NORTHERN AND WESTERN MISSOURI...

CITY           SKY/WX    TMP DP  RH WIND       PRES   REMARKS
KANSAS CTY INT CLOUDY    73  64  73 E6        30.08R
KANSAS C DTWN  PTSUNNY   76  70  82 NE5       30.06S
LEE`S SUMMIT   PTSUNNY   75  69  81 NE5       30.07R
ST JOSEPH      MOSUNNY   73  68  84 CALM      30.07S
CHILLICOTHE      N/A     74  71  91 CALM      30.08S
KIRKSVILLE     CLOUDY    73  69  87 SE7       30.10S FOG

$$
MOZ066>068-077>081-088>096-101>105-301700-
...SOUTHWEST MISSOURI...

CITY           SKY/WX    TMP DP  RH WIND       PRES   REMARKS
SPRINGFIELD    MOSUNNY   76  69  79 S9        30.06R
JOPLIN         MOSUNNY   78  71  79 S6        30.03F

$$
MOZ032>034-039>042-045>050-055>058-069>072-301700-
...CENTRAL MISSOURI...

CITY           SKY/WX    TMP DP  RH WIND       PRES   REMARKS
COLUMBIA       SUNNY     79  69  71 SE6       30.07R
JEFFERSON CITY PTSUNNY   79  67  66 CALM      30.05S
ROLLA          SUNNY     79  68  69 CALM      30.05F
SEDALIA        SUNNY     80  69  69 SE6       30.06S
WHITEMAN AFB   MOSUNNY   76  76 100 E5        30.04S
WARRENSBURG    CLOUDY    75  70  83 E3        30.05S
OSAGE BEACH    SUNNY     79  66  65 SE3       30.05S

$$
MOZ051-052-059>065-301700-
...EAST CENTRAL MISSOURI...

CITY           SKY/WX    TMP DP  RH WIND       PRES   REMARKS
ST LOUIS INTL  PTSUNNY   83  67  58 CALM      30.07S
SPIRIT OF STL  PTSUNNY   81  69  67 S7        30.05S
ST CHARLES     PTSUNNY   81  68  64 SW8       30.06S

$$
MOZ072>076-082>087-097>100-106>115-301700-
...SOUTH CENTRAL AND SOUTHEAST MISSOURI...

CITY           SKY/WX    TMP DP  RH WIND       PRES   REMARKS
CAPE GIRARDEAU CLOUDY    79  72  78 S7        30.08S
FARMINGTON     CLOUDY    77  70  78 S8        30.11S
POPLAR BLUFF   PTSUNNY   80  72  76 S8        30.06S
WEST PLAINS    CLOUDY    75  68  78 SE5       30.09S

$$



USA.gov is the U.S. government's official web portal to all federal, state and local government web resources and services.